When you browse on this site, cookies collect data to enhance your experience and personalize the content and advertising you see.
Visit our Privacy Policy to learn more. By continuing to use the site, you agree to this use of cookies and data.
  • In Czech Republic
  • List of Countries
  • For 7 days
  • Water Temperature
  • Weather Map
  • Weather Widgets
  • user-avatar
    Login

    Hourly Weather Grand Bassam

    Today, 22 September, Sunday

    Time Temperature Precipitation Wind Pressure Humidity
    00:00 +26°C° 0 mm 2 mps 759 mmHg 89%
    01:00 +26°C° 0 mm 2 mps 759 mmHg 90%
    02:00 +26°C° 0 mm 3 mps 758 mmHg 91%
    03:00 +26°C° 0 mm 3 mps 758 mmHg 92%
    04:00 +26°C° 0.2 mm 3 mps 758 mmHg 92%
    05:00 +26°C° 0.2 mm 3 mps 759 mmHg 93%
    06:00 +25°C° 0 mm 2 mps 759 mmHg 95%
    07:00 +26°C° 0.2 mm 3 mps 759 mmHg 90%
    08:00 +27°C° 0.2 mm 3 mps 759 mmHg 85%
    09:00 +29°C° 0.2 mm 3 mps 760 mmHg 80%
    10:00 +29°C° 1 mm 3 mps 759 mmHg 78%
    11:00 +30°C° 1 mm 3 mps 759 mmHg 76%
    12:00 +29°C° 0 mm 3 mps 759 mmHg 78%
    13:00 +29°C° 0.7 mm 3 mps 758 mmHg 81%
    14:00 +28°C° 0.7 mm 4 mps 758 mmHg 85%
    15:00 +27°C° 0.7 mm 4 mps 757 mmHg 88%
    16:00 +27°C° 0.8 mm 3 mps 757 mmHg 90%
    17:00 +26°C° 0.8 mm 3 mps 757 mmHg 92%
    18:00 +26°C° 0.8 mm 2 mps 758 mmHg 95%
    19:00 +26°C° 0.1 mm 2 mps 758 mmHg 94%
    20:00 +26°C° 0.1 mm 3 mps 758 mmHg 94%
    21:00 +26°C° 0.1 mm 3 mps 758 mmHg 94%
    22:00 +26°C° 0 mm 2 mps 758 mmHg 94%
    23:00 +26°C° 0 mm 2 mps 758 mmHg 94%

    Tomorrow, 23 September, Monday

    Time Temperature Precipitation Wind Pressure Humidity
    00:00 +26°C° 0 mm 1 mps 759 mmHg 94%
    01:00 +26°C° 0.1 mm 1 mps 758 mmHg 94%
    02:00 +26°C° 0.1 mm 1 mps 758 mmHg 93%
    03:00 +26°C° 0.1 mm 1 mps 758 mmHg 93%
    04:00 +26°C° 0.1 mm 1 mps 758 mmHg 93%
    05:00 +26°C° 0.1 mm 1 mps 759 mmHg 93%
    06:00 +26°C° 0.1 mm 2 mps 759 mmHg 93%
    07:00 +27°C° 0.1 mm 2 mps 759 mmHg 89%
    08:00 +28°C° 0.1 mm 2 mps 759 mmHg 85%
    09:00 +29°C° 0.1 mm 2 mps 760 mmHg 81%
    10:00 +29°C° 0.1 mm 3 mps 759 mmHg 76%
    11:00 +30°C° 0.1 mm 3 mps 759 mmHg 72%
    12:00 +32°C° 0.1 mm 4 mps 759 mmHg 67%
    13:00 +32°C° 0 mm 4 mps 758 mmHg 69%
    14:00 +30°C° 0 mm 4 mps 757 mmHg 71%
    15:00 +30°C° 0 mm 5 mps 757 mmHg 72%
    16:00 +29°C° 0 mm 5 mps 757 mmHg 77%
    17:00 +28°C° 0 mm 4 mps 757 mmHg 81%
    18:00 +27°C° 0 mm 4 mps 757 mmHg 85%
    19:00 +27°C° 0 mm 4 mps 758 mmHg 87%
    20:00 +27°C° 0 mm 4 mps 758 mmHg 89%
    21:00 +26°C° 0 mm 4 mps 759 mmHg 91%
    22:00 +27°C° 0 mm 4 mps 759 mmHg 90%
    23:00 +27°C° 0 mm 4 mps 759 mmHg 90%

    Day after tomorrow, 24 September, Tuesday

    Time Temperature Precipitation Wind Pressure Humidity
    00:00 +27°C° 0 mm 4 mps 759 mmHg 89%
    01:00 +27°C° 0.1 mm 4 mps 759 mmHg 89%
    02:00 +27°C° 0.1 mm 4 mps 759 mmHg 89%
    03:00 +27°C° 0.1 mm 4 mps 758 mmHg 89%
    04:00 +26°C° 0.4 mm 4 mps 759 mmHg 90%
    05:00 +26°C° 0.4 mm 4 mps 759 mmHg 90%
    06:00 +26°C° 0.4 mm 4 mps 759 mmHg 91%
    07:00 +27°C° 0.1 mm 4 mps 759 mmHg 86%
    08:00 +28°C° 0.1 mm 4 mps 760 mmHg 82%
    09:00 +29°C° 0.1 mm 4 mps 760 mmHg 78%
    10:00 +29°C° 0 mm 4 mps 760 mmHg 77%
    11:00 +29°C° 0 mm 5 mps 759 mmHg 75%
    12:00 +29°C° 0 mm 5 mps 758 mmHg 74%
    13:00 +30°C° 0 mm 5 mps 758 mmHg 72%
    14:00 +30°C° 0 mm 6 mps 757 mmHg 71%
    15:00 +30°C° 0 mm 6 mps 757 mmHg 70%
    16:00 +29°C° 0 mm 5 mps 757 mmHg 74%
    17:00 +28°C° 0 mm 5 mps 757 mmHg 79%
    18:00 +27°C° 0 mm 4 mps 757 mmHg 84%
    19:00 +27°C° 0.1 mm 4 mps 758 mmHg 86%
    20:00 +27°C° 0.1 mm 4 mps 758 mmHg 88%
    21:00 +26°C° 0.1 mm 4 mps 759 mmHg 91%
    22:00 +27°C° 0.1 mm 4 mps 759 mmHg 91%
    23:00 +27°C° 0.1 mm 4 mps 759 mmHg 91%

    25 September, Wednesday

    Time Temperature Precipitation Wind Pressure Humidity
    00:00 +27°C° 0.1 mm 4 mps 759 mmHg 91%
    01:00 +27°C° 0.4 mm 4 mps 759 mmHg 91%
    02:00 +26°C° 0.4 mm 4 mps 758 mmHg 91%
    03:00 +26°C° 0.4 mm 4 mps 758 mmHg 91%
    04:00 +26°C° 1.5 mm 4 mps 758 mmHg 91%
    05:00 +26°C° 1.5 mm 4 mps 758 mmHg 91%
    06:00 +26°C° 1.5 mm 5 mps 759 mmHg 92%
    07:00 +26°C° 2.1 mm 5 mps 759 mmHg 90%
    08:00 +27°C° 2.1 mm 5 mps 759 mmHg 89%
    09:00 +27°C° 2.1 mm 5 mps 760 mmHg 87%
    10:00 +28°C° 1.7 mm 5 mps 759 mmHg 86%
    11:00 +28°C° 1.7 mm 5 mps 759 mmHg 85%
    12:00 +29°C° 1.7 mm 5 mps 758 mmHg 83%
    13:00 +29°C° 0.5 mm 5 mps 758 mmHg 82%
    14:00 +28°C° 0.5 mm 5 mps 758 mmHg 81%
    15:00 +28°C° 0.5 mm 5 mps 757 mmHg 81%
    16:00 +28°C° 0 mm 5 mps 757 mmHg 83%
    17:00 +27°C° 0 mm 4 mps 758 mmHg 86%
    18:00 +27°C° 0 mm 4 mps 758 mmHg 88%
    19:00 +27°C° 0 mm 4 mps 758 mmHg 89%
    20:00 +26°C° 0 mm 4 mps 759 mmHg 90%
    21:00 +26°C° 0 mm 4 mps 759 mmHg 91%
    22:00 +26°C° 0 mm 5 mps 759 mmHg 91%
    23:00 +26°C° 0 mm 5 mps 759 mmHg 91%

    26 September, Thursday

    Time Temperature Precipitation Wind Pressure Humidity
    00:00 +26°C° 0 mm 5 mps 759 mmHg 91%
    01:00 +26°C° 0.1 mm 5 mps 759 mmHg 91%
    02:00 +26°C° 0.1 mm 4 mps 759 mmHg 90%
    03:00 +26°C° 0.1 mm 4 mps 758 mmHg 90%
    04:00 +26°C° 0.1 mm 4 mps 759 mmHg 91%
    05:00 +26°C° 0.1 mm 4 mps 759 mmHg 91%
    06:00 +26°C° 0.1 mm 4 mps 760 mmHg 92%
    07:00 +26°C° 0.2 mm 3 mps 760 mmHg 90%
    08:00 +27°C° 0.2 mm 3 mps 761 mmHg 88%
    09:00 +27°C° 0.2 mm 3 mps 761 mmHg 86%
    10:00 +28°C° 1 mm 3 mps 761 mmHg 86%
    11:00 +28°C° 1 mm 4 mps 760 mmHg 85%
    12:00 +28°C° 1 mm 4 mps 760 mmHg 85%
    13:00 +28°C° 0.4 mm 4 mps 759 mmHg 82%
    14:00 +29°C° 0.4 mm 4 mps 759 mmHg 80%
    15:00 +29°C° 0.4 mm 4 mps 758 mmHg 78%
    16:00 +28°C° 0 mm 4 mps 758 mmHg 81%
    17:00 +28°C° 0 mm 4 mps 758 mmHg 84%
    18:00 +27°C° 0 mm 4 mps 758 mmHg 86%
    19:00 +27°C° 0 mm 3 mps 759 mmHg 88%
    20:00 +26°C° 0 mm 3 mps 759 mmHg 90%
    21:00 +26°C° 0 mm 3 mps 760 mmHg 92%
    22:00 +26°C° 0 mm 3 mps 760 mmHg 92%
    23:00 +26°C° 0 mm 3 mps 760 mmHg 93%

    27 September, Friday

    Time Temperature Precipitation Wind Pressure Humidity
    00:00 +26°C° 0 mm 3 mps 760 mmHg 93%
    01:00 +26°C° 0.1 mm 4 mps 760 mmHg 93%
    02:00 +26°C° 0.1 mm 4 mps 759 mmHg 92%
    03:00 +26°C° 0.1 mm 4 mps 759 mmHg 91%
    04:00 +26°C° 0.1 mm 4 mps 759 mmHg 92%
    05:00 +26°C° 0.1 mm 4 mps 760 mmHg 92%
    06:00 +26°C° 0.1 mm 4 mps 760 mmHg 92%
    07:00 +26°C° 0.1 mm 4 mps 760 mmHg 90%
    08:00 +27°C° 0.1 mm 4 mps 761 mmHg 89%
    09:00 +27°C° 0.1 mm 4 mps 761 mmHg 87%
    10:00 +27°C° 0 mm 4 mps 760 mmHg 84%
    11:00 +28°C° 0 mm 4 mps 760 mmHg 81%
    12:00 +29°C° 0 mm 5 mps 759 mmHg 78%
    13:00 +29°C° 0 mm 5 mps 759 mmHg 77%
    14:00 +29°C° 0 mm 5 mps 758 mmHg 75%
    15:00 +29°C° 0 mm 5 mps 757 mmHg 73%
    16:00 +29°C° 0 mm 5 mps 758 mmHg 77%
    17:00 +28°C° 0 mm 5 mps 758 mmHg 81%
    18:00 +27°C° 0 mm 4 mps 758 mmHg 85%
    19:00 +27°C° 0 mm 4 mps 758 mmHg 86%
    20:00 +27°C° 0 mm 4 mps 759 mmHg 88%
    21:00 +26°C° 0 mm 4 mps 759 mmHg 90%
    22:00 +26°C° 0 mm 4 mps 759 mmHg 90%
    23:00 +26°C° 0 mm 4 mps 759 mmHg 90%
    Show more